Skip Page Navigation
NASA JPL Caltech
NASA Logo - Jet Propulsion Laboratory + View the NASA Portal
+ Center for Near-Earth Object Studies
JPL Home Earth Solar System Stars & Galaxies Technology
JPL Solar System Dynamics
BODIES ORBITS EPHEMERIDES TOOLS PHYSICAL DATA DISCOVERY FAQ SITE MAP
JPL Small-Body Database Browser
Search: [ help ]  
245826 (2006 JS45)
Classification: Main-belt Asteroid          SPK-ID: 2245826
Ephemeris | Orbit Diagram | Orbital Elements | Mission Design | Physical Parameters | Discovery Circumstances | Close-Approach Data ]

[ show orbit diagram ]
Orbital Elements at Epoch 2459000.5 (2020-May-31.0) TDB
Reference: JPL 14 (heliocentric ecliptic J2000)
 Element Value Uncertainty (1-sigma)   Units 
e .08831218718866828 8.079e-08  
a 3.01478507281846 3.4441e-08 au
q 2.748542809134113 2.4039e-07 au
i 9.816777352328485 9.7634e-06 deg
node 144.2460623453476 3.5689e-05 deg
peri 162.7558270340606 5.8639e-05 deg
M 228.1916678282264 4.893e-05 deg
tp 2459700.540756185508
(2022-May-01.04075619)
0.00026539 TDB
period 1911.978310281291
5.23
3.2764e-05
8.97e-08
d
yr
n .1882866547513485 3.2265e-09 deg/d
Q 3.281027336502806 3.7483e-08 au
  Orbit Determination Parameters
   # obs. used (total)      224  
   data-arc span      6819 days (18.67 yr)  
   first obs. used      2001-08-16  
   last obs. used      2020-04-17  
   planetary ephem.      DE431  
   SB-pert. ephem.      SB431-N16  
   condition code      0  
   norm. resid. RMS      .58646  
   source      ORB  
   producer      Otto Matic  
   solution date      2020-May-21 13:09:17  

Additional Information
 Earth MOID = 1.73576 au 
 Jupiter MOID = 1.99524 au 
 T_jup = 3.220 
[ show covariance matrix ]

Ephemeris | Orbit Diagram | Orbital Elements | Mission Design | Physical Parameters | Discovery Circumstances | Close-Approach Data ]

Physical Parameter Table
Parameter Symbol Value Units Sigma Reference Notes
absolute magnitude H 15.7   n/a MPO470621  

245826 (2006 JS45)          Discovered 2006-May-08 by Mt. Lemmon Survey at Mount Lemmon
Reference: 20100726/Numbers.arcLast Updated: 2010-07-28

[ hide close-approach data ]
Close-Approach Data   ...sorted by Date/Time (TDB)
Date/Time (TDB) Time Uncertainty
(days_HH:MM)
Body Nominal Distance (au) Minimum Distance (au) Maximum Distance (au) V-relative (km/s) V-infinity (km/s) JD (TDB) Time Uncertainty (minutes) Semi-major axis (km) Semi-minor axis (km) range-LOV angle (deg) N-sigma BP Orbit Ref. Reference Modified
1929-Oct-03 06:51 00:05 Jupiter 1.98964231301241 1.98964142834171 1.98964319768311 2.93071472591983 2.78166440393279 2425887.785211378 4.77483907709949 192.242127305786 33.8277182322112 87.5319464486829 2201154.44759778 T 14 CATAB v2.0f-lin.ifort 2020-May-21 13:09:38 2020-May-21 13:09
2014-Mar-17 19:54 < 00:01 Jupiter 1.99024131235255 1.99024056911553 1.99024205558946 3.25683408425721 3.12342641304412 2456734.328831871 0.408731903122393 115.849828495677 27.6563697776681 88.5363395572384 1854780.87241041 T 14 CATAB v2.0f-lin.ifort 2020-May-21 13:09:38 2020-May-21 13:09
2060-Dec-29 20:54 00:02 Jupiter 1.97589780297512 1.97589707853887 1.97589852741216 2.97577459347559 2.8280523069523 2473823.370506476 2.39272687251398 113.467438667062 24.0759059083534 79.8882562056285 2362925.22790181 T 14 CATAB v2.0f-lin.ifort 2020-May-21 13:09:38 2020-May-21 13:09
2192-Mar-19 15:12 00:09 Jupiter 1.98638966130031 1.98638873327823 1.98639058933446 3.33393238642902 3.20347920473163 2521750.133197904 8.99012725134983 413.922258453722 26.2457008197179 -88.4821165851216 1487949.18421352 T 14 CATAB v2.0f-lin.ifort 2020-May-21 13:09:38 2020-May-21 13:09

Alternate Designations
 2006 JS45 = 2004 BY157 
Ephemeris | Orbit Diagram | Orbital Elements | Mission Design | Physical Parameters | Discovery Circumstances | Close-Approach Data ]
ABOUT SSD CREDITS/AWARDS PRIVACY/COPYRIGHT GLOSSARY LINKS
FirstGov 2020-Nov-30 02:29 UT
(server date/time)  
NASA Home Page
Site Manager:   Ryan S. Park
Webmaster  Alan B. Chamberlin